Home > Weather > Oxnard > Past weeks

Flag for USA Past Weather in Oxnard, California, USA — Yesterday and Last 2 Weeks

Now
58 °F

Clear.


Feels Like: 58 °F
Forecast: 57 / 67 °F
Wind: 3 mph from West

Location: Oxnard Airport

Current Time: May 27, 2016 at 1:36:43 AM

Latest Report: May 27, 2016 at 12:51 AM


Visibility: 9 mi

Pressure: 29.97 "Hg

Humidity: 87%

Dew Point: 54 °F

Location of OxnardLocation

Past Weather in Oxnard — Graph

°F

Oxnard Temperature Yesterday

Maximum temperature yesterday: 67 °F (at 2:51 PM)
Minimum temperature yesterday: 53 °F (at 4:51 AM)
Average temperature yesterday: 60 °F

High & Low Weather Summary for the Past Weeks

 TemperatureHumidityPressure
High69 °F (May 17, 2:51 PM)93% (May 11, 11:00 PM)30.10 "Hg (May 11, 11:00 PM)
Low50 °F (May 21, 3:51 AM)52% (May 20, 11:51 AM)29.81 "Hg (May 20, 2:51 AM)
Average61 °F77%29.96 "Hg
* Reported May 11 11:00 PM — May 26 11:51 PM, Oxnard, Weather by CustomWeather, © 2016

Note: Actual official high and low records may vary slightly from our data, if they occured in-between our weather recording intervals... More about our weather records

Advertising

Oxnard Weather History for the Previous 24 Hours

Scroll right to see more
 ConditionsComfort  
Time TempWeatherWind HumidityBarometerVisibility
11:51 PM
Thu, May 26
58 °FClear.5 mph87%29.96 "Hg9 mi
10:51 PM59 °FClear.3 mph84%29.96 "Hg9 mi
9:51 PM59 °FClear.No wind84%29.96 "Hg9 mi
8:51 PM59 °FSunny.7 mph84%29.95 "Hg9 mi
7:51 PM59 °FSunny.3 mph84%29.95 "Hg8 mi
6:51 PM62 °FSunny.12 mph75%29.95 "Hg9 mi
5:51 PM63 °FSunny.14 mph73%29.96 "Hg10 mi
4:51 PM65 °FSunny.16 mph66%29.98 "Hg10 mi
3:51 PM65 °FSunny.15 mph68%30.01 "Hg10 mi
2:51 PM67 °FSunny.18 mph61%30.02 "Hg10 mi
1:51 PM66 °FSunny.16 mph65%30.04 "Hg10 mi
12:51 PM66 °FSunny.14 mph68%30.05 "Hg10 mi
11:51 AM66 °FSunny.10 mph63%30.07 "Hg10 mi
10:51 AM65 °FSunny.10 mph63%30.07 "Hg10 mi
9:51 AM63 °FPartly sunny.7 mph73%30.07 "Hg10 mi
8:51 AM62 °FScattered clouds.5 mph73%30.07 "Hg10 mi
7:51 AM60 °FSunny.3 mph75%30.08 "Hg10 mi
6:51 AM56 °FSunny.5 mph81%30.07 "Hg10 mi
5:51 AM53 °FClear.5 mph86%30.05 "Hg10 mi
4:51 AM53 °FClear.3 mph86%30.03 "Hg10 mi
3:51 AM54 °FClear.5 mph86%30.02 "Hg10 mi
2:51 AM55 °FClear.3 mph87%30.03 "Hg10 mi
1:51 AM56 °FClear.6 mph84%30.03 "Hg10 mi
Weather by CustomWeather, © 2016

See weather overviewHow to use our weather pages